Volver al catálogo

STARLINK-6348

ActivoComunicacionesVLEO
NORAD 57360·PAYLOAD·🇺🇸 United States

Lanzado Jul 16, 2023 desde Cape Canaveral Space Force Station

Loading…

Próximos Pases (próximas 24 horas)

TLE

ActualizadoSource: CelesTrak SupGP

Época: Sep 15, 2026, 02:15 UTC

1 57360C 23099AJ  26258.09423611 -.00017737  00000+0 -64211-3 0  2584
2 57360  43.0013 251.7078 0001486 268.8622 320.1183 15.27604413    19

Sigue STARLINK-6348 en tiempo real con AllMySat

Download on the App Store